When you browse on this site, cookies collect data to enhance your experience and personalize the content and advertising you see.
Visit our Privacy Policy to learn more. By continuing to use the site, you agree to this use of cookies and data.
  • In Romania
  • List of Countries
  • For 7 days
  • Water Temperature
  • Satellite Maps
  • Weather Map
  • Weather Widgets
  • user-avatar
    Login

    Hourly Weather Durham

    Today, 17 January, Thursday

    Time Temperature Precipitation Wind Pressure Humidity
    00:00 +1°C° 0 mm 6 mps 744 mmHg 79%
    01:00 0°C° 0.5 mm 7 mps 744 mmHg 77%
    02:00 0°C° 0.5 mm 8 mps 745 mmHg 75%
    03:00 -1°C° 0.5 mm 8 mps 746 mmHg 73%
    04:00 -1°C° 0 mm 8 mps 747 mmHg 70%
    05:00 -2°C° 0 mm 8 mps 748 mmHg 68%
    06:00 -2°C° 0 mm 7 mps 748 mmHg 66%
    07:00 -2°C° 0 mm 8 mps 749 mmHg 66%
    08:00 -2°C° 0 mm 8 mps 749 mmHg 65%
    09:00 -3°C° 0 mm 9 mps 750 mmHg 64%
    10:00 -1°C° 0 mm 8 mps 751 mmHg 64%
    11:00 0°C° 0 mm 8 mps 751 mmHg 63%
    12:00 0°C° 0 mm 8 mps 752 mmHg 66%
    13:00 0°C° 0 mm 7 mps 753 mmHg 67%
    14:00 +1°C° 0 mm 6 mps 754 mmHg 67%
    15:00 +2°C° 0 mm 6 mps 754 mmHg 68%
    16:00 +1°C° 0 mm 5 mps 755 mmHg 70%
    17:00 0°C° 0 mm 5 mps 755 mmHg 72%
    18:00 -1°C° 0 mm 4 mps 756 mmHg 74%
    19:00 -1°C° 0 mm 4 mps 756 mmHg 75%
    20:00 0°C° 0 mm 3 mps 756 mmHg 75%
    21:00 0°C° 0 mm 3 mps 757 mmHg 76%
    22:00 0°C° 0 mm 3 mps 757 mmHg 76%
    23:00 +1°C° 0 mm 2 mps 757 mmHg 76%

    Tomorrow, 18 January, Friday

    Time Temperature Precipitation Wind Pressure Humidity
    00:00 +1°C° 0 mm 2 mps 757 mmHg 76%
    01:00 +1°C° 0 mm 2 mps 757 mmHg 76%
    02:00 +1°C° 0 mm 2 mps 756 mmHg 76%
    03:00 +1°C° 0 mm 2 mps 756 mmHg 77%
    04:00 +1°C° 0 mm 2 mps 756 mmHg 77%
    05:00 +1°C° 0 mm 2 mps 756 mmHg 77%
    06:00 0°C° 0 mm 3 mps 755 mmHg 77%
    07:00 0°C° 0 mm 3 mps 755 mmHg 76%
    08:00 -1°C° 0 mm 4 mps 755 mmHg 75%
    09:00 -1°C° 0 mm 4 mps 755 mmHg 74%
    10:00 0°C° 0 mm 5 mps 755 mmHg 70%
    11:00 0°C° 0 mm 5 mps 754 mmHg 67%
    12:00 +1°C° 0 mm 6 mps 754 mmHg 63%
    13:00 +1°C° 0.1 mm 6 mps 753 mmHg 65%
    14:00 +1°C° 0.1 mm 6 mps 753 mmHg 66%
    15:00 +1°C° 0.1 mm 6 mps 752 mmHg 68%
    16:00 0°C° 0.3 mm 7 mps 752 mmHg 73%
    17:00 0°C° 0.3 mm 7 mps 752 mmHg 77%
    18:00 0°C° 0.3 mm 7 mps 751 mmHg 82%
    19:00 0°C° 0.1 mm 7 mps 751 mmHg 83%
    20:00 0°C° 0.1 mm 7 mps 751 mmHg 84%
    21:00 0°C° 0.1 mm 7 mps 751 mmHg 84%
    22:00 -1°C° 0 mm 7 mps 750 mmHg 86%
    23:00 -1°C° 0 mm 7 mps 750 mmHg 87%

    Day after tomorrow, 19 January, Saturday

    Time Temperature Precipitation Wind Pressure Humidity
    00:00 -1°C° 0 mm 7 mps 750 mmHg 88%
    01:00 -1°C° 0 mm 6 mps 750 mmHg 89%
    02:00 -1°C° 0 mm 6 mps 749 mmHg 90%
    03:00 -1°C° 0 mm 6 mps 749 mmHg 90%
    04:00 0°C° 0 mm 5 mps 749 mmHg 91%
    05:00 0°C° 0 mm 5 mps 749 mmHg 92%
    06:00 0°C° 0 mm 5 mps 748 mmHg 92%
    07:00 0°C° 0 mm 5 mps 748 mmHg 93%
    08:00 0°C° 0 mm 4 mps 749 mmHg 93%
    09:00 0°C° 0 mm 4 mps 749 mmHg 93%
    10:00 +1°C° 0 mm 4 mps 749 mmHg 92%
    11:00 +3°C° 0 mm 4 mps 749 mmHg 91%
    12:00 +3°C° 0 mm 4 mps 749 mmHg 90%
    13:00 +3°C° 0 mm 4 mps 749 mmHg 91%
    14:00 +3°C° 0 mm 3 mps 749 mmHg 92%
    15:00 +3°C° 0 mm 3 mps 749 mmHg 93%
    16:00 +3°C° 0 mm 3 mps 749 mmHg 94%
    17:00 +2°C° 0 mm 3 mps 749 mmHg 95%
    18:00 +2°C° 0 mm 3 mps 750 mmHg 96%
    19:00 +3°C° 0 mm 2 mps 750 mmHg 95%
    20:00 +3°C° 0 mm 2 mps 750 mmHg 95%
    21:00 +3°C° 0 mm 2 mps 751 mmHg 95%
    22:00 +3°C° 0 mm 2 mps 751 mmHg 95%
    23:00 +3°C° 0 mm 2 mps 751 mmHg 94%

    20 January, Sunday

    Time Temperature Precipitation Wind Pressure Humidity
    00:00 +3°C° 0 mm 2 mps 752 mmHg 94%
    01:00 +3°C° 0 mm 2 mps 752 mmHg 94%
    02:00 +2°C° 0 mm 2 mps 752 mmHg 93%
    03:00 +3°C° 0 mm 1 mps 753 mmHg 93%
    04:00 +4°C° 0.1 mm 1 mps 753 mmHg 93%
    05:00 +4°C° 0.1 mm 1 mps 753 mmHg 92%
    06:00 +4°C° 0.1 mm 1 mps 753 mmHg 92%
    07:00 +4°C° 0 mm 1 mps 754 mmHg 92%
    08:00 +4°C° 0 mm 1 mps 755 mmHg 92%
    09:00 +3°C° 0 mm 2 mps 755 mmHg 92%
    10:00 +3°C° 0 mm 2 mps 756 mmHg 90%
    11:00 +4°C° 0 mm 2 mps 756 mmHg 88%
    12:00 +5°C° 0 mm 2 mps 757 mmHg 86%
    13:00 +5°C° 0 mm 2 mps 757 mmHg 86%
    14:00 +5°C° 0 mm 2 mps 757 mmHg 86%
    15:00 +4°C° 0 mm 2 mps 758 mmHg 86%
    16:00 +3°C° 0 mm 3 mps 758 mmHg 87%
    17:00 +2°C° 0 mm 3 mps 759 mmHg 88%
    18:00 0°C° 0 mm 4 mps 760 mmHg 89%
    19:00 +1°C° 0 mm 4 mps 760 mmHg 89%
    20:00 +1°C° 0 mm 4 mps 761 mmHg 88%
    21:00 +2°C° 0 mm 5 mps 762 mmHg 88%
    22:00 +1°C° 0 mm 4 mps 762 mmHg 86%
    23:00 +1°C° 0 mm 4 mps 763 mmHg 85%

    21 January, Monday

    Time Temperature Precipitation Wind Pressure Humidity
    00:00 +2°C° 0 mm 3 mps 763 mmHg 84%
    01:00 +1°C° 0 mm 3 mps 763 mmHg 84%
    02:00 0°C° 0 mm 3 mps 763 mmHg 84%
    03:00 0°C° 0 mm 3 mps 763 mmHg 84%
    04:00 0°C° 0 mm 3 mps 763 mmHg 82%
    05:00 -1°C° 0 mm 2 mps 763 mmHg 81%
    06:00 -1°C° 0 mm 2 mps 763 mmHg 80%
    07:00 -1°C° 0 mm 2 mps 763 mmHg 78%
    08:00 -1°C° 0 mm 2 mps 762 mmHg 77%
    09:00 -1°C° 0 mm 2 mps 762 mmHg 76%
    10:00 0°C° 0 mm 3 mps 762 mmHg 73%
    11:00 0°C° 0 mm 4 mps 761 mmHg 70%
    12:00 +1°C° 0 mm 4 mps 760 mmHg 67%
    13:00 +2°C° 0.1 mm 5 mps 759 mmHg 71%
    14:00 +2°C° 0.1 mm 5 mps 758 mmHg 75%
    15:00 +2°C° 0.1 mm 6 mps 756 mmHg 78%
    16:00 +2°C° 0.1 mm 6 mps 755 mmHg 79%
    17:00 0°C° 0.1 mm 7 mps 753 mmHg 80%
    18:00 0°C° 0.1 mm 8 mps 752 mmHg 80%
    19:00 0°C° 0.2 mm 8 mps 751 mmHg 81%
    20:00 0°C° 0.2 mm 9 mps 749 mmHg 81%
    21:00 +1°C° 0.2 mm 9 mps 748 mmHg 81%
    22:00 +1°C° 0.4 mm 8 mps 747 mmHg 83%
    23:00 +1°C° 0.4 mm 8 mps 746 mmHg 85%

    22 January, Tuesday

    Time Temperature Precipitation Wind Pressure Humidity
    00:00 +2°C° 0.4 mm 7 mps 744 mmHg 87%
    01:00 +1°C° 0.6 mm 6 mps 744 mmHg 84%
    02:00 +1°C° 0.6 mm 6 mps 744 mmHg 81%
    03:00 0°C° 0.6 mm 5 mps 744 mmHg 77%
    04:00 0°C° 0 mm 5 mps 744 mmHg 78%
    05:00 -1°C° 0 mm 4 mps 744 mmHg 79%
    06:00 -1°C° 0 mm 4 mps 744 mmHg 80%
    07:00 -1°C° 0 mm 4 mps 744 mmHg 80%
    08:00 -2°C° 0 mm 4 mps 744 mmHg 80%
    09:00 -2°C° 0 mm 4 mps 745 mmHg 80%
    10:00 -1°C° 0 mm 4 mps 744 mmHg 77%
    11:00 0°C° 0 mm 4 mps 744 mmHg 74%
    12:00 +1°C° 0 mm 4 mps 744 mmHg 71%
    13:00 +1°C° 0 mm 4 mps 744 mmHg 73%
    14:00 +1°C° 0 mm 3 mps 744 mmHg 75%
    15:00 +1°C° 0 mm 3 mps 744 mmHg 78%
    16:00 +1°C° 0 mm 3 mps 744 mmHg 80%
    17:00 0°C° 0 mm 3 mps 744 mmHg 83%
    18:00 -1°C° 0 mm 3 mps 745 mmHg 86%
    19:00 -1°C° 0 mm 3 mps 745 mmHg 84%
    20:00 -1°C° 0 mm 3 mps 744 mmHg 83%
    21:00 -1°C° 0 mm 3 mps 744 mmHg 81%
    22:00 -1°C° 0 mm 3 mps 744 mmHg 81%
    23:00 -1°C° 0 mm 3 mps 744 mmHg 82%
    Show more